FW9341 Weather Reports


time (UTC)temp
F
wind
direction
speed
knots
gust
knots
rain 1hr
in
rain 24hr
in
rain mn
in
humidity
%
barometer
mb
20260504081541 48 136 0.0 1.7 0.00 0.00 0.00 68 998.5
20260504044529 50 0 0.0 0.9 0.00 0.00 0.00 58 1002.4
20260504043037 50 0 0.0 0.0 0.00 0.00 0.00 55 1002.8
20260504041530 51 0 0.0 0.0 0.00 0.00 0.00 56 1003.1
20260504040028 51 0 0.0 0.0 0.00 0.00 0.00 55 1003.4
20260504034530 51 0 0.0 0.9 0.00 0.00 0.00 58 1003.6
20260504033031 52 0 0.0 0.0 0.00 0.00 0.00 57 1003.8
20260504031533 53 156 0.0 0.9 0.00 0.00 0.00 53 1004.0
20260504030028 54 0 0.0 0.9 0.00 0.00 0.00 50 1004.3
20260504024533 54 0 0.0 0.9 0.00 0.00 0.00 51 1004.2
20260504023031 54 0 0.0 0.9 0.00 0.00 0.00 51 1004.3
20260504021530 56 169 0.0 0.9 0.00 0.00 0.00 49 1004.4
20260504020032 56 0 0.0 0.0 0.00 0.00 0.00 47 1004.5
20260504014538 58 169 0.0 0.0 0.00 0.00 0.00 44 1004.6
20260504013036 60 0 0.0 0.9 0.00 0.00 0.00 44 1004.7
20260504011531 62 226 0.0 0.9 0.00 0.00 0.00 39 1004.8
20260504010030 63 0 0.0 0.9 0.00 0.00 0.00 40 1004.9
20260504004533 64 0 0.0 1.7 0.00 0.00 0.00 37 1005.0
20260504003028 65 267 0.9 2.6 0.00 0.00 0.00 34 1005.0
20260504001528 66 274 0.9 5.2 0.00 0.00 0.00 33 1005.1
20260504000032 67 277 1.7 3.5 0.00 0.00 0.00 31 1005.2
20260503234530 68 280 1.7 7.8 0.00 0.00 0.00 29 1005.3
20260503233033 69 37 2.6 5.2 0.00 0.00 0.00 32 1005.4
20260503231528 70 304 1.7 7.8 0.00 0.00 0.00 32 1005.6
20260503230029 69 295 0.9 4.3 0.00 0.00 0.00 31 1005.6
20260503224529 69 315 1.7 4.3 0.00 0.00 0.00 31 1005.6
20260503223028 69 323 1.7 7.0 0.00 0.00 0.00 27 1005.7
20260503221529 69 331 2.6 5.2 0.00 0.00 0.00 31 1005.8
20260503220041 69 311 1.7 8.7 0.00 0.00 0.00 32 1005.8
20260503214530 69 264 3.5 8.7 0.00 0.00 0.00 33 1005.9
20260503213030 69 252 2.6 7.0 0.00 0.00 0.00 31 1006.0
20260503211527 69 274 1.7 8.7 0.00 0.00 0.00 35 1006.1
20260503210027 69 327 3.5 8.7 0.00 0.00 0.00 31 1006.4
20260503204532 69 218 1.7 7.0 0.00 0.00 0.00 34 1006.5
20260503203044 69 243 3.5 7.0 0.00 0.00 0.00 33 1006.8
20260503201533 68 315 1.7 6.1 0.00 0.00 0.00 34 1006.9
20260503200027 67 345 1.7 7.0 0.00 0.00 0.00 39 1007.0
20260503194538 68 149 1.7 7.8 0.00 0.00 0.00 40 1007.2
20260503193032 68 252 2.6 7.0 0.00 0.00 0.00 38 1007.3
20260503191530 68 282 3.5 9.6 0.00 0.00 0.00 37 1007.3
20260503190038 68 319 2.6 8.7 0.00 0.00 0.00 39 1007.3
20260503184530 67 333 2.6 7.8 0.00 0.00 0.00 38 1007.5
20260503183031 67 323 3.5 7.0 0.00 0.00 0.00 36 1007.5
20260503181530 67 306 2.6 7.0 0.00 0.00 0.00 40 1007.6
20260503180033 65 316 3.5 9.6 0.00 0.00 0.00 39 1007.9
20260503174528 65 323 3.5 9.6 0.00 0.00 0.00 37 1008.0
20260503173031 65 295 2.6 9.6 0.00 0.00 0.00 40 1008.1
20260503171532 65 281 4.3 9.6 0.00 0.00 0.00 42 1008.2